Regional Weather Roundup
Issued by NWS

Home | Current Version | Previous Version | Text Only | Print | Product List | Glossary On
Versions: 1 2 3 4 5 6 7 8 9 10 11 12 13 14 15 16 17 18 19 20 21 22 23 24 25 26 27 28 29 30 31 32 33 34 35 36 37 38 39 40 41 42 43 44 45 46 47 48 49 50
000
ASPQ40 PGUM 311112
RWRPQ
WEATHER ROUNDUP FOR THE MARIANAS AND MICRONESIA
NATIONAL WEATHER SERVICE TIYAN GU
900 PM CHST THU JUL 31 2014

GUZ001>004-311200-
MARIANA ISLANDS-

CITY           SKY/WX    TMP DP  RH WIND       PRES   REMARKS
GUAM AIRPORT   LGT RAIN  77  75  94 SE3       29.86R
ANDERSEN AFB   MOCLDY    77  75  94 S9        29.86R
ROTA AIRPORT   NOT AVBL
TINIAN AP      NOT AVBL
SAIPAN AP      CLEAR     81  75  83 SE6       29.84R

$$

PMZ161-311200-
REPUBLIC OF PALAU-

CITY           SKY/WX    TMP DP  RH WIND       PRES   REMARKS
KOROR AP       MOCLDY    82  81  94 CALM      29.86R HX  95
KOROR WSO      CLOUDY    82  77  83 S5        29.86R HX  91

$$

PMZ171>174-311200-
FEDERATED STATES OF MICRONESIA-

CITY           SKY/WX    TMP DP  RH WIND       PRES   REMARKS
YAP AIRPORT    CLOUDY    82  77  83 VRB6      29.82F HX  91
CHUUK AP       LGT RAIN  82  79  89 NW8       29.84R HX  93
POHNPEI AP     NOT AVBL
POHNPEI WSO    MOCLDY    77  75  94 SE2       29.85S
KOSRAE AP      NOT AVBL

$$

PMZ181-311200-
REPUBLIC OF THE MARSHALL ISLANDS-

CITY           SKY/WX    TMP DP  RH WIND       PRES   REMARKS
KWAJALEIN AP   PTCLDY    81  73  78 SE3       29.89R
MAJURO AP      NOT AVBL
MAJURO WSO     MOCLDY    82  75  78 VRB2      29.88S

$$



USA.gov is the U.S. government's official web portal to all federal, state and local government web resources and services.